Weather History for Alma, MI

Change the Weather History Date:

Thursday, January 24, 2013

  Actual Average Record
Temperature  
Mean Temperature 9 °F -  
Max Temperature 16 °F 31 °F 54 °F (1989)
Min Temperature 2 °F 14 °F -13 °F (1963)
Degree Days  
Heating Degree Days 56    
Moisture  
Dew Point 3 °F    
Average Humidity 72    
Maximum Humidity 89    
Minimum Humidity 45    
Precipitation  
Precipitation 0.00 in - - ()
Sea Level Pressure  
Sea Level Pressure 30.46 in    
Wind  
Wind Speed 5 mph (NNW)    
Max Wind Speed 9 mph    
Max Gust Speed -    
Visibility 10 miles    
Events      
Averages and records for this station are not official NWS values.
T = Trace of Precipitation, MM = Missing Value Source: NWS Daily Summary

Daily Weather History Graph

Daily Weather History Graph

Search for Another Location

Airport:

Trip Planner

Search our weather history database for the weather conditions in past years. The results will help you decide how hot, cold, wet, or windy it might be!

Date:

Astronomy

Jan. 24, 2013 Rise Set
Actual Time 8:01 AM EST 5:40 PM EST
Civil Twilight 7:31 AM EST 6:11 PM EST
Nautical Twilight 6:56 AM EST 6:45 PM EST
Astronomical Twilight 6:22 AM EST 7:19 PM EST
Moon 3:40 PM EST (1/24) 6:00 AM EST (1/24)
Length of Visible Light 10h 40m
Length of Day
9h 38m
Waxing Gibbous, 94% of the Moon is Illuminated
Jan 24
Waxing Gibbous
Jan 26
Full
Feb 3
Last Quarter
Feb 10
New
Feb 17
First Quarter

Hourly Weather History & Observations

Time (EST) Temp. Windchill Dew Point Humidity Pressure Visibility Wind Dir Wind Speed Gust Speed Precip Events Conditions
12:15 AM 11.1 °F 0.4 °F 8.4 °F 89% 30.15 in 10.0 mi NW 6.9 mph - N/A   Clear
12:35 AM 10.9 °F 0.2 °F 7.3 °F 85% 30.15 in 10.0 mi NW 6.9 mph - N/A   Clear
12:50 AM 10.8 °F -1.1 °F 7.0 °F 85% 30.16 in 10.0 mi NW 8.1 mph - N/A   Clear
1:10 AM 9.7 °F -0.1 °F 5.9 °F 85% 30.18 in 10.0 mi NW 5.8 mph - N/A   Clear
1:30 AM 9.5 °F -1.5 °F 5.7 °F 85% 30.19 in 10.0 mi NW 6.9 mph - N/A   Clear
1:50 AM 9.3 °F -0.5 °F 5.2 °F 83% 30.21 in 10.0 mi NNW 5.8 mph - N/A   Clear
2:10 AM 8.6 °F -1.3 °F 5.0 °F 85% 30.22 in 10.0 mi NW 5.8 mph - N/A   Clear
2:30 AM 8.6 °F -2.6 °F 5.0 °F 85% 30.24 in 10.0 mi NNW 6.9 mph - N/A   Clear
2:53 AM 9.0 °F -3.2 °F 5.0 °F 84% 30.26 in 10.0 mi NNW 8.1 mph - N/A   Clear
3:13 AM 8.6 °F -3.7 °F 4.8 °F 85% 30.28 in 10.0 mi NNW 8.1 mph - N/A   Clear
3:33 AM 8.4 °F -2.8 °F 4.1 °F 83% 30.29 in 10.0 mi NNW 6.9 mph - N/A   Clear
3:53 AM 7.9 °F -3.5 °F 3.6 °F 83% 30.31 in 10.0 mi NNW 6.9 mph - N/A   Clear
4:13 AM 7.5 °F -2.6 °F 3.2 °F 82% 30.33 in 10.0 mi NNW 5.8 mph - N/A   Clear
4:30 AM 7.9 °F -4.6 °F 3.7 °F 83% 30.34 in 10.0 mi NNW 8.1 mph - N/A   Clear
4:50 AM 7.9 °F -3.5 °F 3.7 °F 83% 30.36 in 10.0 mi NNW 6.9 mph - N/A   Clear
5:10 AM 7.7 °F -4.8 °F 3.6 °F 83% 30.37 in 10.0 mi NNW 8.1 mph - N/A   Clear
5:31 AM 7.7 °F -3.7 °F 3.4 °F 83% 30.39 in 10.0 mi NNW 6.9 mph - N/A   Clear
5:51 AM 6.4 °F -3.9 °F 2.5 °F 84% 30.41 in 10.0 mi NW 5.8 mph - N/A   Clear
6:11 AM 5.7 °F -6.1 °F 2.1 °F 85% 30.42 in 10.0 mi NNW 6.9 mph - N/A   Clear
6:31 AM 5.5 °F -5.0 °F 2.1 °F 86% 30.44 in 10.0 mi NW 5.8 mph - N/A   Clear
6:51 AM 5.4 °F -6.5 °F 1.8 °F 85% 30.46 in 10.0 mi NNW 6.9 mph - N/A   Clear
7:11 AM 5.0 °F -4.1 °F 1.4 °F 85% 30.47 in 10.0 mi NW 4.6 mph - N/A   Clear
7:31 AM 4.1 °F -5.1 °F 0.7 °F 86% 30.48 in 10.0 mi NW 4.6 mph - N/A   Clear
7:51 AM 3.0 °F -6.4 °F -0.2 °F 86% 30.49 in 10.0 mi NW 4.6 mph - N/A   Clear
8:12 AM 2.8 °F -4.6 °F -0.8 °F 85% 30.50 in 10.0 mi NW 3.5 mph - N/A   Clear
8:32 AM 3.2 °F -6.2 °F -0.2 °F 86% 30.51 in 10.0 mi NNW 4.6 mph - N/A   Clear
8:52 AM 5.9 °F -3.0 °F 2.3 °F 85% 30.52 in 10.0 mi NNW 4.6 mph - N/A   Clear
9:12 AM 7.5 °F -2.6 °F 3.2 °F 82% 30.53 in 10.0 mi North 5.8 mph - N/A   Clear
9:32 AM 8.4 °F -1.6 °F 3.4 °F 80% 30.54 in 10.0 mi North 5.8 mph - N/A   Clear
9:52 AM 9.1 °F -1.9 °F 3.7 °F 79% 30.56 in 10.0 mi North 6.9 mph - N/A   Clear
10:12 AM 9.5 °F -3.5 °F 3.9 °F 78% 30.56 in 10.0 mi North 9.2 mph - N/A   Clear
10:32 AM 10.2 °F -0.6 °F 4.3 °F 77% 30.58 in 10.0 mi North 6.9 mph - N/A   Clear
10:52 AM 10.6 °F 2.5 °F 4.1 °F 75% 30.59 in 10.0 mi North 4.6 mph - N/A   Clear
11:13 AM 11.3 °F 3.3 °F 3.9 °F 72% 30.59 in 10.0 mi North 4.6 mph - N/A   Clear
11:33 AM 12.0 °F 2.7 °F 3.7 °F 69% 30.59 in 10.0 mi NW 5.8 mph - N/A   Clear
11:53 AM 12.0 °F 4.1 °F 2.7 °F 66% 30.58 in 10.0 mi NW 4.6 mph - N/A   Clear
12:13 PM 12.2 °F 6.1 °F 2.3 °F 65% 30.58 in 10.0 mi North 3.5 mph - N/A   Clear
12:33 PM 12.7 °F 5.0 °F 1.8 °F 62% 30.57 in 10.0 mi North 4.6 mph - N/A   Clear
12:53 PM 13.5 °F 5.8 °F 0.7 °F 57% 30.57 in 10.0 mi NNE 4.6 mph - N/A   Clear
1:13 PM 14.0 °F 6.5 °F 1.0 °F 56% 30.57 in 10.0 mi NNW 4.6 mph - N/A   Clear
1:33 PM 14.2 °F 8.4 °F 0.5 °F 55% 30.56 in 10.0 mi WNW 3.5 mph - N/A   Clear
1:53 PM 14.9 °F 6.1 °F 1.0 °F 54% 30.56 in 10.0 mi NNW 5.8 mph - N/A   Clear
2:14 PM 15.1 °F 7.7 °F 0.1 °F 52% 30.55 in 10.0 mi West 4.6 mph - N/A   Clear
2:34 PM 15.1 °F - 0.3 °F 52% 30.55 in 10.0 mi Calm Calm - N/A   Clear
2:54 PM 15.4 °F - 0.9 °F 53% 30.55 in 10.0 mi Calm Calm - N/A   Clear
3:14 PM 16.5 °F - -1.5 °F 45% 30.54 in 10.0 mi Calm Calm - N/A   Clear
3:34 PM 15.8 °F - -0.9 °F 48% 30.55 in 10.0 mi Calm Calm - N/A   Clear
3:54 PM 15.8 °F - -1.7 °F 46% 30.56 in 10.0 mi Calm Calm - N/A   Clear
4:14 PM 15.4 °F - 1.9 °F 55% 30.56 in 10.0 mi Calm Calm - N/A   Clear
4:34 PM 14.9 °F - 1.0 °F 54% 30.55 in 10.0 mi Calm Calm - N/A   Clear
4:55 PM 14.0 °F 6.5 °F 3.2 °F 62% 30.55 in 10.0 mi South 4.6 mph - N/A   Clear
5:15 PM 13.1 °F - 2.8 °F 64% 30.55 in 10.0 mi Calm Calm - N/A   Clear
5:35 PM 12.9 °F - 2.3 °F 63% 30.54 in 10.0 mi Calm Calm - N/A   Clear
5:55 PM 12.4 °F - 3.2 °F 67% 30.55 in 10.0 mi Calm Calm - N/A   Clear
6:15 PM 11.5 °F - 2.8 °F 68% 30.55 in 10.0 mi Calm Calm - N/A   Clear
6:30 PM 12.0 °F - 3.0 °F 67% 30.55 in 10.0 mi Calm Calm - N/A   Clear
6:50 PM 10.2 °F - 2.8 °F 72% 30.55 in 10.0 mi Calm Calm - N/A   Clear
7:10 PM 9.5 °F - 3.7 °F 77% 30.54 in 10.0 mi Calm Calm - N/A   Clear
7:31 PM 10.0 °F - 3.9 °F 76% 30.53 in 10.0 mi Calm Calm - N/A   Clear
7:51 PM 11.3 °F - 3.7 °F 72% 30.53 in 10.0 mi Calm Calm - N/A   Clear
8:11 PM 11.7 °F - 3.7 °F 71% 30.52 in 10.0 mi Calm Calm - N/A   Clear
8:31 PM 12.0 °F - 3.6 °F 69% 30.51 in 10.0 mi Calm Calm - N/A   Clear
8:51 PM 12.2 °F 6.1 °F 4.1 °F 70% 30.50 in 10.0 mi SE 3.5 mph - N/A   Clear
9:11 PM 12.0 °F - 3.9 °F 70% 30.50 in 10.0 mi Calm Calm - N/A   Clear
9:31 PM 12.2 °F 6.1 °F 3.6 °F 68% 30.49 in 10.0 mi South 3.5 mph - N/A   Clear
9:51 PM 12.6 °F 6.5 °F 3.7 °F 68% 30.50 in 10.0 mi South 3.5 mph - N/A   Clear
10:11 PM 12.7 °F - 4.1 °F 68% 30.48 in 10.0 mi Calm Calm - N/A   Clear
10:32 PM 12.7 °F - 3.7 °F 67% 30.48 in 10.0 mi Calm Calm - N/A   Clear
10:52 PM 12.7 °F - 3.6 °F 67% 30.48 in 10.0 mi Calm Calm - N/A   Clear
11:12 PM 12.9 °F - 3.2 °F 65% 30.48 in 10.0 mi Calm Calm - N/A   Clear
11:32 PM 13.1 °F - 3.2 °F 65% 30.47 in 10.0 mi Calm Calm - N/A   Scattered Clouds
11:51 PM 13.1 °F 7.1 °F 3.6 °F 66% 30.47 in 10.0 mi SSE 3.5 mph - N/A   Mostly Cloudy